GW0067 Weather Reports


time (UTC)temp
F
wind
direction
speed
knots
gust
knots
rain 1hr
in
rain 24hr
in
rain mn
in
humidity
%
barometer
mb
20260506051008 46 244 0.0 1.7 0.00 0.04 0.01 83 1013.4
20260506050512 46 316 0.0 1.7 0.00 0.04 0.01 83 1013.3
20260506045011 46 205 0.0 2.6 0.00 0.04 0.01 83 1013.3
20260506044528 46 243 0.0 4.3 0.00 0.04 0.01 83 1013.3
20260506044008 46 92 0.9 4.3 0.00 0.04 0.01 83 1013.3
20260506043508 46 229 0.0 1.7 0.00 0.04 0.01 83 1013.2
20260506042510 46 249 0.0 0.0 0.00 0.04 0.01 82 1013.3
20260506042009 46 229 0.0 0.0 0.00 0.04 0.01 82 1013.3
20260506041528 46 108 0.0 0.9 0.00 0.04 0.01 82 1013.3
20260506041008 46 83 0.0 0.9 0.00 0.04 0.01 82 1013.3
20260506040513 46 217 0.0 2.6 0.00 0.04 0.01 82 1013.3
20260506040026 46 62 0.0 2.6 0.00 0.04 0.01 82 1013.3
20260506035504 46 132 0.0 1.7 0.00 0.04 0.01 83 1013.3
20260506035007 46 242 0.0 4.3 0.00 0.04 0.01 83 1013.3
20260506034512 46 248 0.0 4.3 0.00 0.04 0.01 83 1013.3
20260506034008 47 108 0.0 0.0 0.00 0.04 0.01 84 1013.3
20260506033505 47 169 0.0 0.9 0.00 0.04 0.01 84 1013.2
20260506033026 47 21 0.0 0.9 0.00 0.04 0.01 84 1013.3
20260506032508 47 205 0.0 3.5 0.00 0.04 0.01 84 1013.3
20260506032011 47 38 0.0 3.5 0.00 0.04 0.01 84 1013.3
20260506031531 47 63 0.0 3.5 0.00 0.04 0.01 84 1013.3
20260506031009 47 88 0.0 1.7 0.00 0.04 0.01 84 1013.3
20260506030511 47 252 0.0 2.6 0.00 0.04 0.01 84 1013.3
20260506030046 47 10 0.0 2.6 0.00 0.04 0.01 84 1013.3
20260506025511 47 63 0.0 0.9 0.00 0.04 0.01 84 1013.4
20260506025012 47 77 0.0 0.9 0.00 0.04 0.01 84 1013.4
20260506024531 47 90 0.0 1.7 0.00 0.04 0.01 84 1013.4
20260506024008 47 68 0.0 1.7 0.00 0.04 0.01 84 1013.3
20260506023508 47 252 0.0 0.9 0.00 0.04 0.01 84 1013.4
20260506023015 47 271 0.0 0.9 0.00 0.04 0.01 84 1013.3
20260506022506 48 281 0.0 0.9 0.00 0.04 0.01 85 1013.3
20260506022006 48 255 0.0 0.0 0.00 0.04 0.01 85 1013.4
20260506021521 48 269 0.0 0.9 0.00 0.04 0.01 85 1013.4
20260506021008 48 221 0.0 0.9 0.00 0.04 0.01 85 1013.3
20260506020512 48 248 0.0 3.5 0.00 0.04 0.01 86 1013.4
20260506020025 48 247 0.0 3.5 0.00 0.04 0.01 86 1013.4
20260506015512 48 125 0.0 0.0 0.00 0.04 0.01 86 1013.4
20260506015010 48 25 0.0 1.7 0.00 0.04 0.01 86 1013.4
20260506014524 48 17 0.0 1.7 0.00 0.04 0.01 86 1013.4
20260506014008 48 200 0.0 0.0 0.00 0.04 0.01 85 1013.4
20260506013511 48 63 0.0 0.0 0.00 0.04 0.01 85 1013.4
20260506013025 48 122 0.0 0.0 0.00 0.04 0.01 85 1013.4
20260506012509 48 265 0.0 2.6 0.00 0.04 0.01 85 1013.5
20260506012004 48 59 0.0 2.6 0.00 0.04 0.01 85 1013.5
20260506011534 48 251 0.0 0.9 0.00 0.04 0.01 85 1013.5
20260506011008 48 97 0.0 0.9 0.00 0.04 0.01 85 1013.5
20260506010503 48 72 0.0 0.0 0.00 0.04 0.01 85 1013.5
20260506010007 48 72 0.0 0.0 0.00 0.04 0.01 85 1013.5
20260506005507 49 72 0.0 0.0 0.00 0.04 0.01 85 1013.5
20260506005003 49 37 0.0 4.3 0.00 0.04 0.01 84 1013.5
20260506004517 49 249 0.0 4.3 0.00 0.04 0.01 84 1013.5
20260506004004 49 86 0.0 0.0 0.00 0.04 0.01 84 1013.5
20260506003504 49 108 0.0 0.0 0.00 0.04 0.01 84 1013.5
20260506003015 49 54 0.0 0.9 0.00 0.04 0.01 84 1013.5
20260506002505 49 102 0.0 5.2 0.00 0.04 0.01 84 1013.5
20260506002017 49 60 0.0 6.1 0.00 0.04 0.01 84 1013.5
20260506001518 49 68 0.9 6.1 0.00 0.04 0.01 84 1013.6
20260506001002 49 78 0.0 2.6 0.00 0.04 0.01 84 1013.5
20260506000506 49 6 0.0 2.6 0.00 0.04 0.01 84 1013.5
20260506000006 49 53 0.0 2.6 0.01 0.04 0.01 84 1013.5
20260505235503 49 68 0.0 3.5 0.01 0.04 0.01 84 1013.6
20260505235003 49 99 0.0 3.5 0.03 0.04 0.01 84 1013.6
20260505234506 49 122 0.0 2.6 0.04 0.04 0.01 84 1013.6
20260505234005 49 356 0.0 2.6 0.04 0.04 0.01 84 1013.6
20260505233505 49 25 0.0 3.5 0.04 0.04 0.01 84 1013.6
20260505233007 49 60 0.0 3.5 0.04 0.04 0.01 84 1013.5
20260505232502 49 259 0.0 1.7 0.04 0.04 0.01 85 1013.6
20260505232005 50 52 0.0 1.7 0.04 0.04 0.01 85 1013.5
20260505231522 50 330 0.0 0.0 0.04 0.04 0.01 85 1013.5
20260505231010 50 102 0.0 2.6 0.04 0.04 0.01 84 1013.6
20260505230506 50 44 0.0 3.5 0.04 0.04 0.01 83 1013.6
20260505230024 51 79 0.0 3.5 0.03 0.03 0.00 82 1013.7
20260505225509 51 270 0.0 5.2 0.03 0.03 0.03 80 1013.7
20260505225003 52 1 0.0 5.2 0.01 0.01 0.01 78 1013.5
20260505224504 52 276 0.0 4.3 0.00 0.00 0.00 75 1013.5
20260505224003 53 90 0.9 0.0 0.00 0.00 0.00 1013.5
20260505223512 53 0.0 0.0 0.00 0.00 0.00 74 1013.4
20260505223027 53 200 0.9 1.7 0.00 0.00 0.00 74 1013.4
20260505222508 53 0.0 0.9 0.00 0.00 0.00 73 1013.4
20260505222006 53 105 0.0 4.3 0.00 0.00 0.00 73 1013.4
20260505221508 53 60 0.9 4.3 0.00 0.00 0.00 72 1013.3
20260505221012 53 117 0.0 7.0 0.00 0.00 0.00 72 1013.3
20260505220032 54 135 0.0 3.5 0.00 0.00 0.00 72 1013.3
20260505215507 54 65 0.0 2.6 0.00 0.00 0.00 72 1013.2
20260505215007 54 290 0.0 2.6 0.00 0.00 0.00 71 1013.2
20260505214518 54 62 0.0 2.6 0.00 0.00 0.00 71 1013.2
20260505214013 54 64 0.0 4.3 0.00 0.00 0.00 72 1013.2
20260505213513 54 244 0.0 6.1 0.00 0.00 0.00 72 1013.2
20260505213007 54 99 0.0 6.1 0.00 0.00 0.00 72 1013.2
20260505212504 54 245 0.0 0.9 0.00 0.00 0.00 72 1013.1
20260505212005 54 195 0.0 7.8 0.00 0.00 0.00 72 1013.1
20260505211506 54 94 0.9 7.8 0.00 0.00 0.00 71 1013.1
20260505211005 54 60 0.0 3.5 0.00 0.00 0.00 71 1013.1
20260505210502 55 252 0.0 7.8 0.00 0.00 0.00 71 1013.1
20260505210010 55 63 0.0 7.8 0.00 0.00 0.00 71 1013.1
20260505205504 55 138 0.0 4.3 0.00 0.00 0.00 71 1013.1
20260505205007 55 125 0.0 2.6 0.00 0.00 0.00 71 1013.0
20260505204515 55 60 0.0 2.6 0.00 0.00 0.00 71 1013.0
20260505204006 55 13 0.0 7.0 0.00 0.00 0.00 71 1012.9
20260505203507 56 30 0.0 7.0 0.00 0.00 0.00 71 1013.0
20260505203025 56 55 0.0 4.3 0.00 0.00 0.00 71 1012.9
20260505202509 56 210 0.0 5.2 0.00 0.00 0.00 71 1012.8
20260505202008 56 109 0.0 5.2 0.00 0.00 0.00 71 1012.9
20260505201520 56 63 0.0 1.7 0.00 0.00 0.00 71 1012.8
20260505201004 56 6 0.0 2.6 0.00 0.00 0.00 70 1012.8
20260505200505 56 39 0.0 2.6 0.00 0.00 0.00 70 1012.7
20260505200008 56 253 0.0 0.0 0.00 0.00 0.00 69 1012.7
20260505195511 57 253 0.0 0.0 0.00 0.00 0.00 69 1012.7
20260505194528 0 0.0 0.0 0.00 0.00 0.00 1012.5
20260505194008 0 0.0 0.0 0.00 0.00 0.00 1012.5
20260505193511 0 0.0 0.0 0.00 0.00 0.00 1012.4
20260505193028 0 0.0 0.0 0.00 0.00 0.00 1012.4
20260505192511 0 0.0 0.0 0.00 0.00 0.00 1012.4
20260505192011 58 0.0 0.0 0.00 0.00 0.00 1012.4
20260505191529 58 106 0.0 0.0 0.00 0.00 0.00 67 1012.3
20260505191009 58 226 0.0 0.0 0.00 0.00 0.00 67 1012.3
20260505190507 58 226 0.0 0.0 0.00 0.00 0.00 66 1012.3
20260505190035 58 71 0.0 0.0 0.00 0.00 0.00 66 1012.3
20260505185516 58 237 0.0 0.0 0.00 0.00 0.00 66 1012.2
20260505185007 58 245 0.0 0.0 0.00 0.00 0.00 66 1012.2
20260505184531 58 340 0.0 0.0 0.00 0.00 0.00 65 1012.2
20260505184009 58 211 0.0 0.0 0.00 0.00 0.00 65 1012.1
20260505183508 59 247 0.0 0.0 0.00 0.00 0.00 65 1012.1
20260505183027 59 242 0.0 0.0 0.00 0.00 0.00 65 1012.0
20260505182510 59 245 0.0 0.0 0.00 0.00 0.00 64 1012.1
20260505182008 59 162 0.0 0.0 0.00 0.00 0.00 64 1012.0
20260505181519 59 252 0.0 0.0 0.00 0.00 0.00 63 1012.2
20260505181008 59 96 0.0 0.0 0.00 0.00 0.00 63 1012.2
20260505180509 59 215 0.0 0.0 0.00 0.00 0.00 63 1012.1
20260505180034 59 224 0.0 0.0 0.00 0.00 0.00 62 1012.1
20260505175511 60 127 0.0 3.5 0.00 0.00 0.00 62 1012.2
20260505175009 60 262 0.0 3.5 0.00 0.00 0.00 61 1012.1
20260505174525 60 212 0.0 0.0 0.00 0.00 0.00 62 1012.0
20260505174009 60 26 0.0 3.5 0.00 0.00 0.00 62 1012.0
20260505173509 60 37 0.0 4.3 0.00 0.00 0.00 61 1012.1
20260505173010 60 18 0.0 4.3 0.00 0.00 0.00 62 1012.1
20260505172506 60 239 0.0 4.3 0.00 0.00 0.00 63 1012.2
20260505172007 60 26 0.0 3.5 0.00 0.00 0.00 63 1012.2
20260505171013 59 268 0.0 0.9 0.00 0.00 0.00 63 1012.2
20260505170508 59 249 0.0 0.0 0.00 0.00 0.00 64 1012.2
20260505170020 59 247 0.0 0.0 0.00 0.00 0.00 65 1012.2
20260505165512 59 49 0.0 0.0 0.00 0.00 0.00 65 1012.2
20260505165012 59 255 0.0 0.0 0.00 0.00 0.00 66 1012.2
20260505164536 59 233 0.0 0.0 0.00 0.00 0.00 66 1012.2
20260505164011 59 239 0.0 0.0 0.00 0.00 0.00 66 1012.2
20260505163508 59 112 0.0 0.0 0.00 0.00 0.00 67 1012.2
20260505163030 59 231 0.0 0.0 0.00 0.00 0.00 66 1012.2
20260505162512 59 234 0.0 0.0 0.00 0.00 0.00 66 1012.3
20260505162012 59 250 0.0 0.0 0.00 0.00 0.00 66 1012.3
20260505161011 59 100 0.0 0.0 0.00 0.00 0.00 65 1012.3
20260505160507 59 47 0.0 0.0 0.00 0.00 0.00 65 1012.3
20260505153027 61 217 0.0 0.0 0.00 0.00 0.00 62 1012.3
20260505152508 61 238 0.0 0.0 0.00 0.00 0.00 61 1012.3
20260505152013 61 137 0.0 0.0 0.00 0.00 0.00 60 1012.3
20260505151528 61 300 0.0 0.9 0.00 0.00 0.00 60 1012.3
20260505151009 61 266 0.0 2.6 0.00 0.00 0.00 59 1012.4
20260505150511 61 79 0.0 2.6 0.00 0.00 0.00 59 1012.4
20260505140510 61 186 0.0 0.0 0.00 0.00 0.00 62 1012.6
20260505125011 60 117 0.0 0.0 0.00 0.00 0.00 61 1012.9
20260505124513 61 50 0.0 0.0 0.00 0.00 0.00 60 1012.9
20260505123003 61 144 0.0 5.2 0.00 0.00 0.00 60 1012.9
20260505122503 61 243 0.9 5.2 0.00 0.00 0.00 61 1012.9
20260505121521 61 71 0.0 0.9 0.00 0.00 0.00 61 1013.0
20260505120503 59 236 0.0 4.3 0.00 0.00 0.00 64 1013.0
20260505114511 61 31 0.0 5.2 0.00 0.00 0.00 63 1013.1
20260505112011 58 42 0.0 2.6 0.00 0.00 0.00 70 1013.2
20260505111509 57 79 0.0 0.0 0.00 0.00 0.00 72 1013.2
20260505111003 57 297 0.0 0.0 0.00 0.00 0.00 73 1013.2
20260505110503 56 252 0.0 0.0 0.00 0.00 0.00 74 1013.3
20260505102010 55 230 0.0 0.0 0.00 0.00 0.00 73 1013.6
20260505101517 55 110 0.0 2.6 0.00 0.00 0.00 73 1013.5
20260505101011 56 245 0.0 2.6 0.00 0.00 0.00 73 1013.5
20260505100509 56 259 0.0 1.7 0.00 0.00 0.00 73 1013.5
20260505100028 56 226 0.0 3.5 0.00 0.00 0.00 74 1013.5
20260505095504 56 64 0.0 3.5 0.00 0.00 0.00 74 1013.5
20260505095003 56 94 0.0 2.6 0.00 0.00 0.00 75 1013.5
20260505094004 55 242 0.0 1.7 0.00 0.00 0.00 76 1013.6
20260505093504 55 241 0.0 4.3 0.00 0.00 0.00 77 1013.6
20260505093008 54 123 0.0 6.1 0.00 0.00 0.00 77 1013.6
20260505092504 54 68 0.9 6.1 0.00 0.00 0.00 78 1013.6
20260505092009 54 50 0.0 3.5 0.00 0.00 0.00 77 1013.6
20260505091512 54 246 0.0 5.2 0.00 0.00 0.00 77 1013.6
20260505091008 55 221 0.0 5.2 0.00 0.00 0.00 77 1013.6
20260505090509 55 246 0.0 1.7 0.00 0.00 0.00 78 1013.7
20260505090016 55 159 0.0 1.7 0.00 0.00 0.00 79 1013.6
20260505085507 55 259 0.0 0.0 0.00 0.00 0.00 80 1013.7
20260505085009 54 235 0.0 5.2 0.00 0.00 0.00 81 1013.8
20260505084529 54 245 0.0 5.2 0.00 0.00 0.00 81 1013.8
20260505084009 54 240 0.0 2.6 0.00 0.00 0.00 82 1013.8
20260505083504 54 195 0.0 1.7 0.00 0.00 0.00 82 1013.8
20260505083015 53 22 0.0 1.7 0.00 0.00 0.00 83 1013.9
20260505082507 53 247 0.0 0.9 0.00 0.00 0.00 83 1013.8
20260505082004 53 112 0.0 2.6 0.00 0.00 0.00 83 1013.8
20260505081509 53 240 0.0 2.6 0.00 0.00 0.00 83 1013.8
20260505081009 53 253 0.0 1.7 0.00 0.00 0.00 84 1013.9
20260505080504 53 262 0.0 1.7 0.00 0.00 0.00 84 1013.8
20260505080021 53 120 0.0 1.7 0.00 0.00 0.00 84 1013.9
20260505075508 53 26 0.0 1.7 0.00 0.00 0.00 84 1013.8
20260505075007 53 141 0.0 1.7 0.00 0.02 0.00 84 1013.7
20260505074520 53 234 0.0 0.9 0.00 0.02 0.00 84 1013.7
20260505074007 53 234 0.0 0.9 0.00 0.02 0.00 84 1013.8
20260505073508 53 221 0.0 0.9 0.00 0.02 0.00 84 1013.8
20260505073035 53 227 0.0 0.9 0.00 0.02 0.00 85 1013.8
20260505072508 53 248 0.0 0.0 0.00 0.02 0.00 85 1013.9
20260505072011 53 219 0.0 0.0 0.00 0.02 0.00 85 1013.8
20260505071505 53 219 0.0 0.0 0.00 0.02 0.00 85 1013.8
20260505071005 52 336 0.0 0.0 0.00 0.02 0.00 85 1013.9
20260505070505 52 77 0.0 3.5 0.00 0.02 0.00 85 1014.1
20260505070012 52 245 0.0 3.5 0.00 0.02 0.00 85 1014.1
20260505065506 53 232 0.0 0.0 0.00 0.02 0.00 85 1014.1
20260505065006 52 240 0.0 0.0 0.00 0.02 0.00 85 1014.1
20260505064516 52 157 0.0 0.0 0.00 0.02 0.00 86 1014.1
20260505064007 52 70 0.0 0.0 0.00 0.02 0.00 86 1014.1
20260505063508 52 232 0.0 0.0 0.00 0.02 0.00 87 1014.0
20260505063029 52 226 0.0 0.0 0.00 0.02 0.00 87 1013.9
20260505062509 52 226 0.0 0.0 0.00 0.02 0.00 87 1013.9
20260505062009 51 247 0.0 0.0 0.00 0.02 0.00 87 1013.9
20260505061528 51 228 0.0 0.0 0.00 0.02 0.00 88 1013.8
20260505061010 51 117 0.0 0.0 0.00 0.02 0.00 88 1013.9
20260505060514 51 243 0.0 0.0 0.00 0.02 0.00 88 1013.9
20260505060052 51 75 0.0 0.0 0.00 0.02 0.00 88 1013.9
20260505055512 51 242 0.0 0.0 0.00 0.02 0.00 88 1013.9
20260505055014 50 242 0.0 0.0 0.00 0.02 0.00 89 1013.9
20260505054518 50 254 0.0 0.0 0.00 0.02 0.00 89 1013.9
20260505054017 50 72 0.0 0.0 0.00 0.02 0.00 89 1013.9
20260505053508 50 71 0.0 0.0 0.00 0.02 0.00 89 1014.0
20260505053016 50 248 0.0 0.0 0.00 0.02 0.00 89 1014.0
20260505052508 50 248 0.0 0.0 0.00 0.02 0.00 89 1014.0
20260505052008 50 248 0.0 0.0 0.00 0.02 0.00 89 1014.0